STARLINK-33625, 63327

Orbit data source: Space-Track

STARLINK-33625, 63327 is a payload satellite owned by SpaceX/Seattle (US) in LEO that was launched on Tue, 18 Mar 2025 UTC via an FALCON 9 launch vehicle from the Air Force Eastern Test Range (AFETR). Payload-class satellites include a variety of spacecraft equipped with specific instruments for various scientific and technological missions. These include communications satellites like Starlink; space stations such as the ISS; scientific satellites like the Hubble; Earth observation satellites from companies like Planet Labs, Umbra, and HawkEye 360; GPS; miniature CubeSats for education and research; and military/defense satellites.

Loading next visibility...
Identifier
63327, 2025-057W
Orbit
LEO
Country
Flag of USUS
Related business
Manufacturer
SpaceX/Seattle
Mission
Operational Commercial Communications
Bus & Motor
STARLINK V2MO, Unknown motor
Mass
575 kg wet, ~530 kg dry
Launch date (UTC)
2025-03-18 (7 months ago)
Launch vehicle
FALCON 9
Launch site
Air Force Eastern Test Range (AFETR)
Object type
Payload
Rocket body
Debris
Shape & HBR
Box + 2 Pan, 17.7 m
Radar Cross Section
36.964 m², Large (>1 m²)

Expand to show TLE details & history
Last TLE update: 2 days ago

TLE from 2 days ago
0 STARLINK-33625
1 63327U 25057W   25295.45147572  .00050689  00000-0  18372-2 0  9999
2 63327  43.0014  83.9336 0001599 272.2189  87.8480 15.27609297 34721
Epoch: 2025-10-22T10:50Z
TLE epoch observation values (Epoch: 2025-10-22T10:50:07.502Z)
Latitude
0.00002°
Longitude
-109.72252°
Altitude
482.696 km
Speed
7.626 km/s
True Right ascension
05h 35m 44s
True Declination
0° 00' 00"
Sunlit
Object was in full shadow at epoch
Visualization orbit readout
Latitude
Unknown
Longitude
Unknown
Altitude
Unknown
Speed
Unknown
Apparent Right ascension
Unknown
Apparent Declination
Unknown
Sunlit
N/A
Visualization observer readout
Local Sidereal Time
01:30:00
Azimuth
Unknown
Elevation
Unknown
Doppler factor
Unknown
Orbital elements
Apogee altitude
486.004 km
Perigee altitude
483.809 km
Semi-major axis
6,863.043 km
Eccentricity
0.00016
Inclination
43.0014°
RAAN
83.9336°
Arg. of periapsis
272.2189°
True anomaly
87.86631°
Mean anomaly
87.848°
Eccentric anomaly
87.85716°
Mean motion
3.8174 °/min
Orbital period
94.3 mins
BSTAR
0.0018372
Loading maneuver chart data...
Computing Atmospheric mass density...
Loading historical data...
Loading historical data...
Loading historical data...
Loading historical data...
Loading historical data...
Loading historical data...
Loading historical data...

Documentation

Showing up to 5 results
|